Regional Weather Roundup
Issued by NWS Newport/Morehead, NC

Home | Current Version | Previous Version | Text Only | Print | Product List | Glossary On
Versions: 1 2 3 4 5 6 7 8 9 10 11 12 13 14 15 16 17 18 19 20 21 22 23 24 25 26 27 28 29 30 31 32 33 34 35 36 37 38 39 40 41 42 43 44 45 46 47 48 49 50
000
ASUS42 KMHX 221225
RWRMHX
WEATHER ROUNDUP FOR EASTERN NORTH CAROLINA
NATIONAL WEATHER SERVICE NEWPORT/MOREHEAD CITY NC
800 AM EDT SUN SEP 22 2019

NOTE: "FAIR" INDICATES FEW OR NO CLOUDS BELOW 12,000 FEET
WITH NO SIGNIFICANT WEATHER AND/OR OBSTRUCTIONS TO VISIBILITY

NCZ015>017-031-032-045>047-102-103-221300-
NORTH COAST

CITY           SKY/WX    TMP DP  RH WIND       PRES   REMARKS
EDENTON        NOT AVBL
ELIZABETH CITY FAIR      67  62  84 SW5       30.22R
KITTY HAWK     FAIR      68  62  81 CALM      30.22R
MANTEO         FAIR      69  62  78 W5        30.24R

$$

NCZ045>047-081-094-103-104-221300-
CENTRAL COAST

CITY           SKY/WX    TMP DP  RH WIND       PRES   REMARKS
FRISCO         FAIR     N/A N/A N/A W3        30.23S

$$

NCZ095-097-098-100-101-221300-
SOUTHERN COAST

CITY           SKY/WX    TMP DP  RH WIND       PRES   REMARKS
BEAUFORT       FAIR      67  63  87 CALM      30.23S
CEDAR ISLAND   NOT AVBL
JACKSONVILLE   FAIR      62  60  93 CALM      30.23S
PINEY ISLAND   FAIR      69  63  81 CALM      30.23S
WILMINGTON     FAIR      64  60  87 CALM      30.23S


$$

NCZ011>013-027>030-043-044-078>080-089-090>093-098-221300-
COASTAL PLAIN

CITY           SKY/WX    TMP DP  RH WIND       PRES   REMARKS
AHOSKIE        NOT AVBL
CLINTON        FAIR      62  61  99 CALM      30.25R
ELIZABETHTOWN  FAIR      64  60  87 CALM      30.25R
GOLDSBORO      FAIR      66  61  82 SW3       30.22R HAZE
GREENVILLE     FAIR      66  61  82 SW3       30.24R
HAVELOCK       FAIR      63  59  87 CALM      30.24S
KENANSVILLE    FAIR      63  61  94 CALM      30.25R
KINSTON        SUNNY     63  61  94 CALM      30.23R
NEW BERN       FAIR      63  61  93 CALM      30.24S
RICHLANDS      FAIR      60  57  89 CALM      30.25R
ROCKY MOUNT    FAIR      64  61  90 S5        30.22R
WASHINGTON     NOT AVBL
WHITEVILLE     FAIR      61  59  93 CALM      30.24R

$$

AMZ130-135-150-152-154-156-158-170-250-252-270-ANZ085-086-088-633-658-670-221300-
MARINE OBSERVATIONS

STATION/POSITION TIME  TEMP    WIND        PRES    WAVE   SWELL
                       AIR SEA DIR/SP/G            HT/PER HT/PER
                 (UTC) (F)     (DEG/KT/KT) (MB)    (FT/S) (FT/S)
64 E VA BEACH    1150   71 71  220/  6/  6 1023.9    4/12   3/12
DUCK             1148   71     230/  8/ 11 1023.1
2 E DUCK         1200      75                N/A     3/13   2/13
10 NE DUCK       1200      74                N/A     3/13   2/13
OREGON INLET     1136   71 74  230/  8/  9 1023.6
13E OREGON INLT  1146      74                N/A     4/13   3/13
HATTERAS CG      1148          250/  2/  3 1023.8
DIAMOND BUOY     1210   75 75  240/  4/  6 1023.7
CAPE LOOKOUT     1200   70     360/  4/  5 1023.8
BEAUFORT LAB     1148           30/  2/  2 1024.4
30 SE NEW RVR IN 1208   79 79  150/  2/  4 1024.3
30 SE NEW RVR IN 1200      79                N/A     3/13   2/13
27 SE WRIGHTSVLE 1208   77 80   40/  2/  4 1022.2
5 SE WRIGHTSVLE  1208   74 79  340/  4/  8 1023.6
27 SE WRIGHTSVL  1208   77 80   40/  2/  4 1022.2
FRYING PAN BUOY  1210   77 80   50/  4/  6 1023.1
225 S CAPE HAT   1210   76      50/ 10/ 14 1023.2
41 SE CHARLESTON 1210      81   90/ 10/ 14 1022.7

$$



USA.gov is the U.S. government's official web portal to all federal, state and local government web resources and services.